Effective Sunday, March 17, 2024, the National Weather Service National Data Buoy Center will discontinue its Dial-A-Buoy Interactive Voice Response system. For more information, see Service Change Notice 24-06 (PDF).

Station 46022 (LLNR 500) - EEL RIVER - 17NM WSW of Eureka, CA Image indicating link to RSS feed of recent meteorological observations for station 46022


Conditions at 46022 as of
(6:30 pm PST on 02/23/2024)
0230 GMT on 02/24/2024:
     

Click on the graph icon in the table below to see a time series plot of the last five days of that observation.

5-day plot - Wind Direction Wind Direction (WDIR):NNW ( 330 deg true )
5-day plot - Wind Speed Wind Speed (WSPD): 3.9 kts
5-day plot - Wind Gust Wind Gust (GST): 5.8 kts
5-day plot - Atmospheric Pressure Atmospheric Pressure (PRES):30.12 in
5-day plot - Air Temperature Air Temperature (ATMP): 54.9 °F
5-day plot - Water Temperature Water Temperature (WTMP): 55.2 °F
5-day plot - Dew Point Dew Point (DEWP): 50.7 °F
5-day plot - Wind Speed at 10 Meters Wind Speed at 10 meters (WSPD10M): 3.9 kts
5-day plot - Wind Speed at 20 Meters Wind Speed at 20 meters (WSPD20M): 3.9 kts
5-day plot -  Wind Speed, Wind Gust and Atmospheric Pressure Combined plot of Wind Speed, Gust, and Air Pressure
Supplemental Measurements
Highest 1-minute Wind Speed
Time (PST)5-day plot - 1-Minute Wind Speed WSPD 5-day plot - 1-Minute Wind Direction WDIR
6:29 pm 3.9 kts-
Previous observations
TIME
(PST)
5-day plot - Wind Direction
WDIR
 
5-day plot - Wind Speed
WSPD
kts
5-day plot - Wind Gust
GST
kts
5-day plot - Wave Height
WVHT
ft
5-day plot - Dominant Wave Period
DPD
sec
5-day plot - Average Wave Period
APD
sec
5-day plot - Mean Wave Direction
MWD
 
5-day plot - Atmospheric Pressure
PRES
in
5-day plot - Pressure Tendency
PTDY
in
5-day plot - Air Temperature
ATMP
°F
5-day plot - Water Temperature
WTMP
°F
5-day plot - Dew Point
DEWP
°F
5-day plot - Salinity
SAL
psu
5-day plot - Visibility
VIS
nmi
5-day plot - Tide (above MLLW)
TIDE
ft
2024-02-23 06:20 pm NW 3.9 5.8 6.9 149.1WNW30.12- 54.9 55.2 50.5---
2024-02-23 06:10 pmNNW 3.9 5.8----30.12- 54.9 55.4 50.4---
2024-02-23 06:00 pm NW 3.9 3.9----30.12-0.02 54.9 55.2 50.2---
2024-02-23 05:50 pmWNW 3.9 5.8 7.2 119.2 W30.13- 54.9 55.2 50.0---
2024-02-23 05:40 pmNNW 3.9 5.8----30.12- 54.9 55.2 50.0---
2024-02-23 05:30 pmNNW 5.8 5.8----30.12- 55.0 55.2 50.0---
2024-02-23 05:20 pm N 3.9 5.8 8.2 139.5 W30.12- 55.0 55.2 49.6---
2024-02-23 05:10 pm N 3.9 5.8 8.2-9.5 W30.12- 55.2 55.4 49.6---
2024-02-23 05:00 pm N 5.8 7.8----30.12-0.04 55.2 55.4 49.5---
2024-02-23 04:50 pm N 5.8 7.8 7.9 139.5 W30.12- 55.2 55.2 49.3---
2024-02-23 04:40 pm N 5.8 7.8----30.13- 55.2 55.2 49.1---
2024-02-23 04:30 pm N 5.8 9.7----30.13- 55.2 55.2 48.7---
2024-02-23 04:20 pm N 7.8 11.7 8.9 1310.0WNW30.13- 55.2 55.2 48.4---
2024-02-23 04:10 pm N 7.8 9.7 8.9-10.0WNW30.13- 55.4 55.0 48.0---
2024-02-23 04:00 pm N 7.8 9.7----30.14-0.06 55.2 55.2 47.8---
2024-02-23 03:50 pmNNW 9.7 11.7 7.5 139.7WNW30.14- 55.2 55.4 48.7---
2024-02-23 03:40 pmNNW 7.8 11.7----30.14- 55.2 55.4 49.1---
2024-02-23 03:30 pmNNW 7.8 9.7----30.14- 55.0 55.2 48.6---
2024-02-23 03:20 pm N 7.8 9.7----30.14- 54.9 54.9 48.6---
2024-02-23 03:10 pm N 7.8 9.7----30.15- 54.5 54.5 48.7---
2024-02-23 03:00 pm N 7.8 9.7----30.14-0.07 54.5 55.0 49.6---
2024-02-23 02:50 pm N 7.8 9.7 8.2 149.5WNW30.15- 54.7 54.7 50.4---
2024-02-23 02:40 pm N 7.8 9.7----30.15- 54.7 55.0 50.4---
2024-02-23 02:30 pmNNW 7.8 9.7----30.16- 54.3 55.2 50.0---
2024-02-23 02:20 pmNNW 7.8 9.7 8.5 129.6WNW30.16- 54.7 55.4 50.5---
2024-02-23 02:10 pmNNW 7.8 9.7 8.5-9.6WNW30.16- 54.9 55.2 50.4---
2024-02-23 02:00 pmNNW 7.8 9.7----30.16-0.04 54.9 55.2 49.5---
2024-02-23 01:50 pmNNW 7.8 9.7 9.8 1410.0WNW30.17- 54.1 55.0 47.8---
2024-02-23 01:40 pmNNW 7.8 9.7----30.17- 54.0 54.7 48.4---
2024-02-23 01:30 pmNNW 7.8 9.7----30.18- 54.0 55.2 48.9---
2024-02-23 01:20 pmNNW 7.8 11.7 10.2 129.8 W30.18- 54.1 54.9 49.3---
2024-02-23 01:10 pmNNW 5.8 9.7 10.2-9.8 W30.19- 54.0 55.2 48.7---
2024-02-23 01:00 pmNNW 5.8 7.8----30.19-0.01 53.6 55.0 48.0---
2024-02-23 12:50 pmNNW 5.8 7.8 10.5 1410.2WNW30.20- 53.6 54.9 48.0---
2024-02-23 12:40 pmNNW 5.8 7.8----30.19- 53.6 54.7 47.8---
2024-02-23 12:30 pmNNW 5.8 7.8----30.20- 53.6 54.7 47.7---
2024-02-23 12:20 pmNNW 3.9 5.8 10.2 139.6 W30.20- 53.6 54.7 47.7---
2024-02-23 12:10 pm N 3.9 5.8 10.2-9.6 W30.21- 53.8 54.5 48.4---
2024-02-23 12:00 pm NE 1.9 3.9----30.21+0.01 53.6- 48.2---
2024-02-23 11:50 am E 1.9 5.8 12.1 1310.3WNW30.21- 53.6 54.5 48.4---
2024-02-23 11:40 am E 3.9 7.8----30.22- 53.6 54.3 48.2---
2024-02-23 11:30 amESE 3.9 7.8----30.21- 53.4 54.3 48.0---
2024-02-23 11:20 amESE 3.9 7.8 11.5 1410.3WNW30.21- 53.1 54.3 47.7---
2024-02-23 11:10 amESE 3.9 7.8 11.5-10.3WNW30.21- 52.9 54.3 47.7---
2024-02-23 11:00 amESE 5.8 9.7----30.21+0.01 52.7 54.1 47.7---
2024-02-23 10:50 amESE 5.8 7.8----30.21- 52.7 54.1 47.7---
2024-02-23 10:40 am E 5.8 9.7----30.20- 52.7 54.1 48.0---
2024-02-23 10:30 am E 3.9 9.7----30.20- 52.5 54.1 47.8---
2024-02-23 10:20 am E 5.8 9.7 9.5 159.8WNW30.20- 52.2 54.1 47.5---
2024-02-23 10:10 amESE 5.8 7.8 9.5-9.8WNW30.20- 52.2- 47.7---
2024-02-23 10:00 amESE 5.8 9.7----30.21+0.01 52.0 54.0 47.5---
2024-02-23 09:50 amESE 5.8 11.7 10.5 1410.5WNW30.21- 51.8 54.0 47.5---
2024-02-23 09:40 amESE 7.8 11.7----30.21- 51.4 54.0 47.5---
2024-02-23 09:30 amESE 7.8 11.7----30.21- 51.3 54.0 47.5---
2024-02-23 09:20 amESE 7.8 11.7 9.5 1410.2WNW30.21- 50.9 53.8 46.9---
2024-02-23 09:10 amESE 7.8 11.7 9.5-10.2WNW30.21- 51.1 53.8 47.1---
2024-02-23 09:00 amESE 7.8 11.7----30.20+0.00 50.9 53.8 46.8---
2024-02-23 08:50 amESE 9.7 13.6 8.9 1410.1 W30.20- 51.1 53.8 46.8---
2024-02-23 08:40 amESE 9.7 13.6----30.20- 51.1 53.8 46.8---
2024-02-23 08:30 am E 9.7 13.6----30.20- 51.1 53.8 46.9---
2024-02-23 08:20 am E 9.7 13.6 8.5 159.8 W30.19- 51.1 53.8 46.9---
2024-02-23 08:10 am E 9.7 13.6 8.5-9.8 W30.19- 51.3 53.8 46.9---
2024-02-23 08:00 am E 9.7 13.6----30.19-0.02 51.3 53.8 46.9---
2024-02-23 07:50 am E 9.7 13.6 9.5 1410.4WNW30.19- 51.3 53.8 47.1---
2024-02-23 07:40 amESE 9.7 13.6----30.19- 51.3 53.8 47.3---
2024-02-23 07:30 amESE 9.7 13.6----30.20- 51.1 53.8 47.3---
2024-02-23 07:20 amESE 9.7 13.6 8.9 1410.5 W30.19- 51.1 53.8 47.3---
2024-02-23 07:10 am E 9.7 13.6----30.19- 51.3 53.6 47.3---
2024-02-23 07:00 am E 9.7 13.6----30.19-0.03 51.6 53.8 47.5---
2024-02-23 06:50 am E 9.7 13.6 8.9 1310.2 W30.20- 51.6 53.8 47.5---
2024-02-23 06:40 am E 9.7 13.6----30.20- 51.8 53.8 47.8---
2024-02-23 06:30 am E 9.7 13.6----30.20- 51.8 53.8 47.8---
2024-02-23 06:20 am E 9.7 13.6 9.5 1510.4WNW30.20- 52.0 53.8 47.8---
2024-02-23 06:10 am E 7.8 13.6 9.5-10.4WNW30.21- 52.0 53.8 47.5---
2024-02-23 06:00 am E 7.8 11.7----30.21-0.03 52.3 53.8 47.7---
2024-02-23 05:50 am E 7.8 11.7 8.2 159.7 W30.21- 52.2 53.8 47.7---
2024-02-23 05:40 am E 7.8 11.7----30.21- 51.8 53.8 47.3---
2024-02-23 05:30 am E 9.7 13.6----30.22- 51.8 53.8 47.1---
2024-02-23 05:20 amESE 7.8 11.7 8.2 159.8 W30.22- 52.0 53.8 47.3---
2024-02-23 05:10 amESE 9.7 11.7 8.2-9.8 W30.22- 51.8- 46.9---
2024-02-23 05:00 am E 9.7 13.6----30.22-0.03 52.0 53.8 46.9---
2024-02-23 04:50 am E 9.7 11.7 7.9 159.6WNW30.21- 52.3 53.8 46.9---
2024-02-23 04:40 am E 9.7 13.6----30.22- 52.3 53.6 46.8---
2024-02-23 04:30 am E 9.7 13.6----30.22- 52.2 53.6 46.8---
2024-02-23 04:20 am E 9.7 13.6 7.9 159.3 W30.22- 52.5 53.6 47.3---
2024-02-23 04:10 am E 9.7 13.6 7.9-9.3 W30.22- 52.3 53.4 47.1---
2024-02-23 04:00 am E 9.7 13.6----30.22-0.03 52.3 53.6 47.1---
2024-02-23 03:50 am E 9.7 13.6 7.9 158.8 W30.22- 52.0 53.6 46.9---
2024-02-23 03:40 am E 9.7 13.6----30.23- 51.6 53.6 47.1---
2024-02-23 03:30 am E 9.7 13.6----30.23- 51.8 53.8 47.1---
2024-02-23 03:20 am E 9.7 11.7 7.5 157.7 W30.24- 51.8 54.7 47.1---
2024-02-23 03:10 amESE 7.8 11.7 7.5-7.7 W30.24- 51.8 54.7 47.5---
2024-02-23 03:00 am E 9.7 11.7----30.24-0.01 51.8 54.7 47.8---
2024-02-23 02:50 am E 9.7 11.7 8.2 168.4WNW30.24- 52.0 54.7 47.8---
2024-02-23 02:40 am E 7.8 11.7----30.24- 52.2 54.7 47.8---
2024-02-23 02:30 am E 7.8 9.7----30.24- 52.7 54.7 47.8---
2024-02-23 02:20 am E 7.8 9.7 7.9 137.7WNW30.24- 53.1 54.7 47.8---
2024-02-23 02:10 am E 7.8 9.7----30.24- 53.2 54.7 48.6---
2024-02-23 02:00 am E 5.8 9.7----30.24+0.00 53.1 54.7 48.6---
2024-02-23 01:50 amESE 5.8 7.8 7.5 147.6WNW30.24- 53.1 54.7 48.9---
2024-02-23 01:40 amESE 3.9 7.8----30.25- 53.1 54.7 49.1---
2024-02-23 01:30 amESE 3.9 7.8----30.25- 52.9 54.7 49.1---
2024-02-23 01:20 amESE 3.9 7.8 6.9 157.3WNW30.25- 52.7 54.7 48.9---
2024-02-23 01:10 amESE 3.9 7.8 6.9-7.3WNW30.25- 52.9 54.7 49.5---
2024-02-23 01:00 am E 3.9 7.8----30.25+0.00 52.9 54.7 49.5---
2024-02-23 12:50 am E 3.9 7.8 7.2 147.3WNW30.25- 53.4 54.7 49.8---
2024-02-23 12:40 amESE 3.9 5.8----30.25- 53.4 54.7 49.6---
2024-02-23 12:30 amESE 3.9 5.8----30.26- 53.6 54.7 50.2---
2024-02-23 12:20 amESE 3.9 5.8 7.2 137.2WNW30.26- 53.6 54.7 50.4---
2024-02-23 12:10 am SE 3.9 5.8 7.2-7.2WNW30.25- 53.6 54.7 50.4---
2024-02-23 12:00 amESE 3.9 5.8----30.25+0.02 53.6 54.7 50.2---
2024-02-22 11:50 pm E 3.9 7.8 6.9 147.1WNW30.25- 53.8 54.7 50.2---
2024-02-22 11:40 pm E 3.9 7.8 6.9-7.1WNW30.25- 53.6 54.7 49.6---
2024-02-22 11:30 pmESE 3.9 7.8----30.24- 53.8 54.7 49.5---
2024-02-22 11:20 pm E 5.8 9.7 6.6 137.0WNW30.24- 54.3 54.7 49.3---
2024-02-22 11:10 pm E 5.8 9.7----30.24- 54.3 54.7 48.6---
2024-02-22 11:00 pm E 5.8 9.7----30.24+0.03 54.5 54.7 48.6---
2024-02-22 10:50 pm E 5.8 9.7 6.6 147.3WNW30.24- 54.5 54.7 48.2---
2024-02-22 10:40 pm E 5.8 9.7----30.24- 54.3 54.7 48.2---
2024-02-22 10:30 pm E 5.8 9.7----30.24- 54.3 54.7 48.2---
2024-02-22 10:20 pm E 5.8 9.7 6.2 147.2WNW30.24- 54.7 54.7 48.6---
2024-02-22 10:10 pm E 7.8 9.7 6.2-7.2WNW30.24- 54.7 54.7 48.4---
2024-02-22 10:00 pm E 7.8 11.7----30.24+0.04 54.7 54.7 48.6---
2024-02-22 09:50 pm E 7.8 9.7 5.9 147.1WNW30.23- 55.0 54.7 49.1---
2024-02-22 09:40 pm E 7.8 11.7----30.23- 55.4 54.7 48.2---
2024-02-22 09:30 pm SE 7.8 9.7----30.23- 55.4 54.7 47.3---
2024-02-22 09:20 pmSSE 9.7 11.7 5.9 156.9 W30.23- 55.4 54.7 46.6---
2024-02-22 09:10 pmSSE 11.7 13.6----30.24- 55.6 54.7 46.2---
2024-02-22 09:00 pmSSE 11.7 15.5----30.23+0.04 55.2 54.7 46.0---
2024-02-22 08:50 pmSSE 11.7 13.6 6.2 147.5WNW30.22- 55.2 54.7 47.1---
2024-02-22 08:40 pm S 11.7 15.5----30.22- 55.2 54.7 47.5---
2024-02-22 08:30 pm S 13.6 15.5----30.22- 55.2 54.5 47.1---
2024-02-22 08:20 pm S 13.6 15.5 5.6 146.9 W30.22- 55.0 54.5 47.5---
2024-02-22 08:10 pm S 13.6 17.5 5.6-6.9 W30.22- 55.0 54.5 47.5---
2024-02-22 08:00 pm S 13.6 17.5----30.21+0.02 55.0 54.5 48.2---
2024-02-22 07:50 pm S 11.7 15.5 5.2 146.3WNW30.21- 55.0 54.5 47.8---
2024-02-22 07:40 pm S 11.7 15.5----30.22- 54.9 54.5 47.7---
2024-02-22 07:30 pm S 13.6 15.5----30.21- 54.9 54.5 47.8---
2024-02-22 07:20 pm S 13.6 15.5 5.6 156.7WNW30.21- 54.9 54.5 47.8---
2024-02-22 07:10 pmSSE 11.7 15.5 5.6-6.7WNW30.21- 54.9 54.5 48.2---
2024-02-22 07:00 pmSSE 13.6 17.5----30.21+0.00 54.7 54.5 48.0---
2024-02-22 06:50 pm S 15.5 19.4 5.6 156.6WNW30.20- 54.9 54.5 48.4---
2024-02-22 06:40 pm S 15.5 17.5----30.20- 54.7 54.5 48.2---
2024-02-22 06:30 pm S 15.5 19.4----30.19- 54.7 54.5 48.2---
2024-02-22 06:20 pm S 17.5 21.4 5.6 146.2WNW30.19- 54.7 54.5 48.4---
2024-02-22 06:10 pm S 17.5 21.4 5.6-6.2WNW30.19- 54.7 54.5 48.6---
2024-02-22 06:00 pm S 17.5 21.4----30.19-0.02 54.5 54.5 48.4---
2024-02-22 05:50 pm S 17.5 19.4 5.6 146.3WNW30.19- 54.5 54.5 48.9---

Detailed Wave Summary
for 46022 as of
(6:10 pm PST on 02/23/2024)
0210 GMT on 02/24/2024:

These wave data are displayed in rounded times.

     

Click on the graph icon in the table below to see a time series plot of the last five days of that observation.

5-day plot - Significant Wave Height Significant Wave Height (WVHT): 6.9 ft
5-day plot - Swell Height Swell Height (SwH): 6.9 ft
5-day plot - Swell Period Swell Period (SwP): 13.8 sec
5-day plot - Swell Direction Swell Direction (SwD):WNW
5-day plot - Wind Wave Height Wind Wave Height (WWH): 1.0 ft
5-day plot - Wind Wave Period Wind Wave Period (WWP): 3.0 sec
5-day plot - Wind Wave Direction Wind Wave Direction (WWD): N
5-day plot - Wave Steepness Wave Steepness (STEEPNESS): SWELL
5-day plot - Average Wave Period Average Wave Period (APD): 9.1 sec
Previous observations
TIME
(PST)
5-day plot - Wave Height
WVHT
ft
5-day plot - Swell Height
SwH
ft
5-day plot - Swell Period
SwP
sec
5-day plot - Swell Direction
SwD
 
5-day plot - Wind Wave Height
WWH
ft
5-day plot - Wind Wave Period
WWP
sec
5-day plot - Wind Wave Direction
WWD
 
5-day plot - Wave Steepness
STEEPNESS
 
5-day plot - Average Wave Period
APD
sec
2024-02-23 05:40 pm 7.2 7.2 11.4 W 1.0 4.0 ENE SWELL 9.2
2024-02-23 05:10 pm 8.2 7.9 12.9 W 1.0 3.8 ESE SWELL 9.5
2024-02-23 04:40 pm 7.9 7.9 12.9 W 1.0 3.8 SE SWELL 9.5
2024-02-23 04:10 pm 8.9 8.9 12.9WNW 1.0 3.7 E SWELL 10.0
2024-02-23 03:40 pm 7.5 7.5 12.9WNW 1.0 3.8 S SWELL 9.7
2024-02-23 02:40 pm 8.2 8.2 13.8WNW 1.0 3.8 SSW SWELL 9.5
2024-02-23 02:10 pm 8.5 8.5 12.1WNW 1.0 3.7 SSW SWELL 9.6
2024-02-23 01:40 pm 9.8 9.5 13.8WNW 1.0 3.3 SSW SWELL 10.0
2024-02-23 01:10 pm 10.2 10.2 12.1 W 1.0 3.6 SW SWELL 9.8
2024-02-23 12:40 pm 10.5 10.2 13.8WNW 1.3 4.0 SW SWELL 10.2
2024-02-23 12:10 pm 10.2 10.2 12.9 W 1.3 3.7 SW SWELL 9.6
2024-02-23 11:40 am 12.1 12.1 12.9WNW 1.3 3.8 SSW SWELL 10.3
2024-02-23 11:10 am 11.5 11.5 13.8WNW 1.3 3.7 SSW SWELL 10.3
2024-02-23 10:10 am 9.5 9.2 14.8WNW 1.0 4.0 SSW SWELL 9.8
2024-02-23 09:40 am 10.5 10.5 13.8WNW 1.0 4.0 SW SWELL 10.5
2024-02-23 09:10 am 9.5 9.5 13.8WNW 1.0 3.1 S SWELL 10.2
2024-02-23 08:40 am 8.9 8.9 13.8 W 1.3 4.2 SSW SWELL 10.1
2024-02-23 08:10 am 8.5 8.5 14.8 W 1.3 4.5 SSW SWELL 9.8
2024-02-23 07:40 am 9.5 9.5 13.8WNW 1.3 4.5 SSW SWELL 10.4
2024-02-23 07:10 am 8.9 8.9 13.8 W 1.0 4.2 SSW SWELL 10.5
2024-02-23 06:40 am 8.9 8.5 12.9 W 1.0 4.3 SSW SWELL 10.2
2024-02-23 06:10 am 9.5 9.5 14.8WNW 1.0 4.2 SSW SWELL 10.4
2024-02-23 05:40 am 8.2 8.2 14.8 W 1.0 4.2 SSW SWELL 9.7
2024-02-23 05:10 am 8.2 8.2 14.8 W 1.0 3.6 SW SWELL 9.8
2024-02-23 04:40 am 7.9 7.5 14.8WNW 1.3 4.3 SSW SWELL 9.6
2024-02-23 04:10 am 7.9 7.5 14.8 W 1.3 4.2 SSW SWELL 9.3
2024-02-23 03:40 am 7.9 7.5 14.8 W 1.3 4.0 SSW SWELL 8.8
2024-02-23 03:10 am 7.5 7.5 14.8 W 1.3 3.4 SSW SWELL 7.7
2024-02-23 02:40 am 8.2 8.2 16.0WNW 1.6 3.6 S SWELL 8.4
2024-02-23 02:10 am 7.9 7.5 12.9WNW 1.6 3.8 S SWELL 7.7
2024-02-23 01:40 am 7.5 7.5 13.8WNW 1.6 4.0 SSW SWELL 7.6
2024-02-23 01:10 am 6.9 6.9 14.8WNW 1.6 3.8 SSW SWELL 7.3
2024-02-23 12:40 am 7.2 7.2 13.8WNW 1.6 4.0 SSW SWELL 7.3
2024-02-23 12:10 am 7.2 7.2 12.9WNW 1.6 3.7 SSW SWELL 7.2
2024-02-22 11:40 pm 6.9 6.6 13.8WNW 1.6 3.6 S SWELL 7.1
2024-02-22 11:10 pm 6.6 6.2 12.9WNW 1.3 3.7 S SWELL 7.0
2024-02-22 10:40 pm 6.6 6.2 13.8WNW 1.3 3.6 SSW SWELL 7.3
2024-02-22 10:10 pm 6.2 5.9 13.8WNW 1.3 3.7 SSW SWELL 7.2
2024-02-22 09:40 pm 5.9 5.9 13.8WNW 1.3 3.6 SSW SWELL 7.1
2024-02-22 09:10 pm 5.9 5.2 14.8 W 2.3 4.5 SSW SWELL 6.9
2024-02-22 08:40 pm 6.2 5.6 13.8WNW 2.6 5.3 SSW SWELL 7.5
2024-02-22 08:10 pm 5.6 4.6 13.8 W 3.3 6.7 WSW SWELL 6.9
2024-02-22 07:40 pm 5.2 4.3 13.8WNW 3.0 5.3 SW SWELL 6.3
2024-02-22 07:10 pm 5.6 4.9 14.8WNW 3.0 5.9 SW SWELL 6.7
2024-02-22 06:40 pm 5.6 4.3 14.8WNW 3.6 5.6 SW SWELL 6.6
2024-02-22 06:10 pm 5.6 4.3 13.8WNW 3.6 5.6 SSW SWELL 6.2

Plot of wave energy versus frequency (and period)